Terminal Aerodrome Forecast
Issued by NWS Salt Lake City, UT

Home | Current Version | Previous Version | Text Only | Print | Product List | Glossary On
Versions: 1 2 3 4 5 6 7 8 9 10 11 12 13 14 15 16 17 18 19 20 21 22 23 24 25 26 27 28 29 30 31 32 33 34 35 36 37 38 39 40 41 42 43 44 45 46 47 48 49 50
000
FTUS45 KSLC 231130
TAFSLC
TAF
KSLC 231130Z 2312/2418 15012KT P6SM TSRA BKN050CB
     FM231230 15012KT P6SM VCTS BKN050CB BKN070
     FM231600 33010KT P6SM VCSH SCT050 BKN070
     FM231800 34010KT P6SM SCT070 BKN090
     FM232200 33010KT P6SM SCT090 BKN150
     FM240400 15007KT P6SM SCT150=

USA.gov is the U.S. government's official web portal to all federal, state and local government web resources and services.